La Porte, IN

1:23 AM CST on December 08, 2016 (GMT -0600)
La Porte Municipal

Weather History for KPPO - March, 2013

Change the Weather History Date:

Tuesday, March 5, 2013

  Actual Average (KVPZ) Record (KVPZ)
Temperature  
Mean Temperature 30 °F 34 °F  
Max Temperature 32 °F 42 °F 76 °F (1983)
Min Temperature 27 °F 25 °F -3 °F (1978)
Degree Days  
Heating Degree Days 36 31  
Month to date heating degree days 160  
Since 1 July heating degree days 4892  
Cooling Degree Days 0 0  
Month to date cooling degree days 0  
Year to date cooling degree days 0  
Moisture  
Dew Point 27 °F    
Average Humidity 90    
Maximum Humidity 99    
Minimum Humidity 74    
Precipitation  
Precipitation 0.06 in 0.08 in 1.20 in (2004)
Month to date precipitation 0.39  
Year to date precipitation 3.56  
Sea Level Pressure  
Sea Level Pressure 29.86 in    
Wind  
Wind Speed 11 mph (ENE)    
Max Wind Speed 18 mph    
Max Gust Speed 25 mph    
Visibility 4 miles    
Events Snow    
T = Trace of Precipitation, MM = Missing Value Source: NWS Daily Summary

Daily Weather History Graph

Daily Weather History Graph

Search for Another Location

Airport or City:

Trip Planner

Search our weather history database for the weather conditions in past years. The results will help you decide how hot, cold, wet, or windy it might be!

Date:

Astronomy

Mar. 05, 2013 Rise Set
Actual Time 6:14 AM CST 5:42 PM CST
Civil Twilight 5:47 AM CST 6:10 PM CST
Nautical Twilight 5:15 AM CST 6:42 PM CST
Astronomical Twilight 4:42 AM CST 7:14 PM CST
Moon 1:29 AM CST (3/5) 11:17 AM CST (3/5)
Length of Visible Light 12h 23m
Length of Day
11h 27m
Last Quarter, 40% of the Moon is Illuminated
Mar 5
Last Quarter
Mar 11
New
Mar 19
First Quarter
Mar 27
Full
Apr 2
Last Quarter

Hourly Weather History & Observations

Time (CST) Temp. Windchill Dew Point Humidity Pressure Visibility Wind Dir Wind Speed Gust Speed Precip Events Conditions
12:15 AM 30.2 °F 21.9 °F 28.4 °F 93% 30.00 in 5.0 mi East 9.2 mph - N/A Snow Light Snow
12:35 AM 30.2 °F 20.8 °F 28.4 °F 93% 30.00 in 7.0 mi East 11.5 mph - N/A   Overcast
12:55 AM 30.2 °F 20.8 °F 28.4 °F 93% 29.99 in 7.0 mi East 11.5 mph - N/A   Overcast
1:15 AM 30.2 °F 20.8 °F 28.4 °F 93% 29.99 in 7.0 mi East 11.5 mph - N/A   Overcast
1:35 AM 30.2 °F 20.2 °F 28.4 °F 93% 29.98 in 7.0 mi East 12.7 mph - N/A   Overcast
1:55 AM 30.2 °F 20.8 °F 28.4 °F 93% 29.97 in 7.0 mi East 11.5 mph - N/A   Overcast
2:15 AM 30.2 °F 20.8 °F 28.4 °F 93% 29.96 in 10.0 mi East 11.5 mph - N/A   Overcast
2:35 AM 30.6 °F 21.8 °F 28.2 °F 91% 29.95 in 10.0 mi East 10.4 mph - N/A   Overcast
2:55 AM 30.6 °F 21.2 °F 28.2 °F 91% 29.95 in 10.0 mi East 11.5 mph - N/A   Overcast
3:15 AM 30.2 °F 21.3 °F 27.9 °F 91% 29.94 in 10.0 mi East 10.4 mph - N/A   Overcast
3:35 AM 30.4 °F 21.5 °F 27.5 °F 89% 29.94 in 10.0 mi East 10.4 mph - N/A   Overcast
3:55 AM 30.6 °F 21.8 °F 27.0 °F 86% 29.94 in 10.0 mi East 10.4 mph - N/A   Overcast
4:15 AM 30.7 °F 20.9 °F 26.4 °F 84% 29.93 in 10.0 mi East 12.7 mph - N/A   Overcast
4:35 AM 30.7 °F 20.9 °F 26.1 °F 83% 29.92 in 10.0 mi East 12.7 mph - N/A   Overcast
4:55 AM 30.7 °F 22.0 °F 25.7 °F 82% 29.92 in 10.0 mi East 10.4 mph - N/A   Overcast
5:15 AM 30.9 °F 22.2 °F 24.8 °F 78% 29.92 in 10.0 mi East 10.4 mph - N/A   Overcast
5:35 AM 30.9 °F 22.2 °F 24.6 °F 77% 29.91 in 10.0 mi East 10.4 mph 16.1 mph N/A   Overcast
5:55 AM 31.1 °F 20.9 °F 24.4 °F 76% 29.92 in 10.0 mi ESE 13.8 mph 18.4 mph N/A   Overcast
6:15 AM 31.1 °F 21.4 °F 24.3 °F 76% 29.91 in 10.0 mi ESE 12.7 mph - N/A   Overcast
6:35 AM 31.1 °F 21.4 °F 24.4 °F 76% 29.91 in 10.0 mi East 12.7 mph - N/A   Overcast
7:15 AM 31.1 °F 21.9 °F 24.8 °F 77% 29.90 in 7.0 mi ESE 11.5 mph - N/A Snow Light Snow
7:35 AM 31.1 °F 20.9 °F 24.4 °F 76% 29.90 in 7.0 mi East 13.8 mph 18.4 mph N/A Snow Light Snow
7:55 AM 30.9 °F 21.2 °F 25.2 °F 79% 29.90 in 2.0 mi East 12.7 mph - N/A Snow Light Snow
8:15 AM 30.6 °F 20.2 °F 26.6 °F 85% 29.89 in 2.5 mi East 13.8 mph - N/A Snow Light Snow
8:35 AM 30.9 °F 21.7 °F 26.6 °F 84% 29.89 in 7.0 mi East 11.5 mph - N/A   Overcast
8:55 AM 31.1 °F 22.4 °F 26.6 °F 83% 29.88 in 7.0 mi East 10.4 mph - N/A   Overcast
9:15 AM 31.6 °F 21.2 °F 25.3 °F 78% 29.88 in 10.0 mi East 15.0 mph - N/A   Overcast
9:35 AM 32.0 °F 22.5 °F 24.6 °F 74% 29.88 in 7.0 mi ESE 12.7 mph - N/A Snow Light Snow
9:55 AM 31.3 °F 20.3 °F 25.3 °F 79% 29.87 in 3.0 mi ESE 16.1 mph 21.9 mph N/A Snow Light Snow
10:15 AM 31.1 °F 21.9 °F 25.9 °F 81% 29.87 in 2.5 mi ESE 11.5 mph 18.4 mph N/A Snow Light Snow
10:35 AM 30.7 °F 22.0 °F 27.0 °F 86% 29.85 in 1.8 mi East 10.4 mph - N/A Snow Light Snow
10:55 AM 30.9 °F 22.8 °F 28.0 °F 89% 29.84 in 1.5 mi East 9.2 mph - N/A Snow Light Snow
11:15 AM 30.7 °F 20.9 °F 28.2 °F 90% 29.83 in 1.2 mi East 12.7 mph - N/A Snow Light Snow
11:35 AM 30.9 °F 21.7 °F 28.4 °F 90% 29.82 in 2.0 mi East 11.5 mph - N/A Snow Light Snow
11:55 AM 30.7 °F 20.9 °F 28.4 °F 91% 29.82 in 1.8 mi East 12.7 mph - N/A Snow Light Snow
12:15 PM 30.6 °F 20.2 °F 28.2 °F 91% 29.81 in 1.0 mi East 13.8 mph - N/A Snow Light Snow
12:35 PM 30.6 °F 21.2 °F 28.4 °F 92% 29.80 in 1.5 mi East 11.5 mph - N/A Snow Light Snow
12:55 PM 30.6 °F 21.2 °F 28.4 °F 92% 29.79 in 1.2 mi East 11.5 mph - N/A Snow Light Snow
1:15 PM 30.2 °F 20.2 °F 28.2 °F 92% 29.79 in 0.8 mi East 12.7 mph - N/A Snow Light Snow
1:35 PM 30.0 °F 20.0 °F 28.4 °F 94% 29.77 in 0.8 mi ENE 12.7 mph - 0.01 in Snow Light Snow
1:55 PM 29.8 °F 19.3 °F 28.2 °F 94% 29.77 in 0.5 mi East 13.8 mph - 0.01 in Snow Light Snow
2:15 PM 29.7 °F 20.7 °F 28.4 °F 95% 29.76 in 0.5 mi ENE 10.4 mph - N/A Snow Snow
2:35 PM 29.3 °F 19.6 °F 28.0 °F 95% 29.76 in 0.5 mi ENE 11.5 mph - N/A Snow Light Snow
2:55 PM 29.1 °F 21.3 °F 28.0 °F 96% 29.76 in 0.5 mi ENE 8.1 mph - N/A Snow Snow
3:15 PM 28.9 °F 19.8 °F 27.9 °F 96% 29.76 in 0.8 mi ENE 10.4 mph - 0.01 in Snow Light Snow
3:35 PM 28.4 °F 17.5 °F 27.3 °F 96% 29.75 in 0.8 mi NE 13.8 mph 18.4 mph 0.01 in Snow Light Snow
3:55 PM 28.4 °F 18.5 °F 27.1 °F 95% 29.76 in 0.8 mi ENE 11.5 mph - 0.01 in Snow Light Snow
4:15 PM 28.2 °F 18.3 °F 27.1 °F 96% 29.76 in 0.8 mi NE 11.5 mph 17.3 mph N/A Snow Light Snow
4:35 PM 28.0 °F 19.3 °F 27.0 °F 96% 29.76 in 0.8 mi NE 9.2 mph - N/A Snow Light Snow
4:55 PM 27.5 °F 17.4 °F 26.4 °F 96% 29.77 in 0.8 mi NNE 11.5 mph 18.4 mph 0.01 in Snow Snow
5:15 PM 27.3 °F 18.4 °F 26.2 °F 96% 29.78 in 1.0 mi NE 9.2 mph - N/A Snow Snow
5:35 PM 27.3 °F 18.4 °F 26.2 °F 96% 29.79 in 0.8 mi NE 9.2 mph - N/A Snow Snow
5:55 PM 27.5 °F 18.0 °F 26.4 °F 96% 29.79 in 1.0 mi NE 10.4 mph - N/A Snow Light Snow
6:15 PM 27.5 °F 20.2 °F 26.4 °F 96% 29.80 in 0.8 mi NNE 6.9 mph - 0.01 in Snow Snow
6:35 PM 27.7 °F 20.4 °F 26.8 °F 96% 29.80 in 1.2 mi North 6.9 mph - 0.01 in Snow Light Snow
6:55 PM 27.9 °F 21.5 °F 27.1 °F 97% 29.80 in 1.5 mi North 5.8 mph - 0.02 in Snow Light Snow
7:15 PM 27.5 °F 21.1 °F 27.0 °F 98% 29.80 in 1.0 mi NNW 5.8 mph - N/A Snow Snow
7:35 PM 27.5 °F 21.1 °F 27.1 °F 99% 29.80 in 1.2 mi NNW 5.8 mph - N/A Snow Light Snow
7:55 PM 28.2 °F 20.2 °F 27.5 °F 97% 29.81 in 1.2 mi NNW 8.1 mph - 0.01 in Snow Light Snow
8:15 PM 28.4 °F 19.1 °F 28.0 °F 99% 29.81 in 1.5 mi North 10.4 mph - N/A Snow Light Snow
8:35 PM 28.4 °F 18.0 °F 27.9 °F 98% 29.82 in 2.0 mi North 12.7 mph - N/A Snow Light Snow
8:55 PM 28.4 °F 18.0 °F 27.5 °F 96% 29.83 in 2.0 mi North 12.7 mph - N/A Snow Light Snow
9:15 PM 28.6 °F 17.2 °F 27.7 °F 96% 29.84 in 1.5 mi North 15.0 mph - N/A Snow Light Snow
9:35 PM 28.8 °F 16.2 °F 27.5 °F 95% 29.85 in 1.2 mi North 18.4 mph 21.9 mph N/A Snow Light Snow
9:55 PM 28.4 °F 16.6 °F 27.1 °F 95% 29.86 in 1.8 mi North 16.1 mph - N/A Snow Light Snow
10:15 PM 28.2 °F 16.3 °F 26.6 °F 94% 29.87 in 2.0 mi North 16.1 mph 23.0 mph N/A Snow Light Snow
10:35 PM 28.0 °F 16.1 °F 26.4 °F 94% 29.87 in 2.5 mi North 16.1 mph 23.0 mph N/A Snow Light Snow
10:55 PM 28.0 °F 15.7 °F 26.1 °F 92% 29.88 in 4.0 mi North 17.3 mph 25.3 mph N/A Snow Light Snow
11:15 PM 27.9 °F 16.8 °F 25.7 °F 92% 29.89 in 5.0 mi North 13.8 mph 21.9 mph N/A Snow Light Snow
11:35 PM 27.5 °F 16.3 °F 25.3 °F 92% 29.89 in 4.0 mi North 13.8 mph - N/A Snow Light Snow
11:55 PM 27.3 °F 14.8 °F 24.8 °F 90% 29.90 in 7.0 mi North 17.3 mph 23.0 mph N/A Snow Light Snow